Time[GMT],current_u[cm/s](10m),current_v[cm/s](10m),current_u[cm/s](14m),current_v[cm/s](14m),current_u[cm/s](18m),current_v[cm/s](18m),current_u[cm/s](22m),current_v[cm/s](22m),current_u[cm/s](26m),current_v[cm/s](26m),current_u[cm/s](30m),current_v[cm/s](30m),current_u[cm/s](34m),current_v[cm/s](34m),current_u[cm/s](38m),current_v[cm/s](38m),current_u[cm/s](42m),current_v[cm/s](42m),current_u[cm/s](46m),current_v[cm/s](46m),current_u[cm/s](50m),current_v[cm/s](50m),current_u[cm/s](54m),current_v[cm/s](54m)
2016-07-08 14:00,,,,,,,,,,,,,,,,,,,,,,,,
2016-07-08 17:00,-10.48,-17.96,-16.03,-15.73,-9.00,-17.32,-8.40,-16.52,-9.94,-18.01,-9.62,-16.98,-9.36,-15.03,-8.51,-13.64,-6.62,-12.98,-5.14,-13.07,-6.74,-11.87,-4.54,-11.54
2016-07-08 18:00,-4.54,-14.77,-13.47,-13.42,-10.06,-11.90,-4.48,-15.69,-3.40,-17.25,-4.01,-17.63,-4.31,-16.26,-4.41,-15.56,-3.03,-12.45,-1.56,-10.35,-1.49,-8.46,1.99,-9.31
2016-07-08 19:00,2.02,-17.95,4.17,-9.62,6.62,-15.88,10.82,-17.78,9.38,-18.20,7.07,-17.42,6.65,-15.98,7.85,-14.37,9.69,-11.75,10.04,-9.05,8.09,-8.05,13.43,-8.89
2016-07-08 20:00,-1.63,-23.29,-7.50,-12.82,-1.35,-12.48,1.27,-19.32,2.03,-20.14,2.45,-19.08,3.52,-18.45,2.48,-17.40,1.38,-16.48,0.25,-14.41,-0.89,-13.70,4.83,-14.74
2016-07-08 21:00,-6.07,-26.26,-7.49,-12.51,3.73,-9.54,3.87,-15.75,4.16,-15.66,3.24,-14.99,4.29,-13.96,5.46,-12.26,5.86,-12.56,4.55,-13.78,1.39,-15.43,3.40,-14.84
2016-07-08 22:00,-3.40,-25.79,4.28,-12.50,10.43,-13.20,8.28,-17.27,8.98,-17.90,10.21,-16.39,9.61,-14.69,8.64,-12.79,8.24,-11.45,5.71,-10.62,2.03,-10.87,3.02,-14.95
2016-07-08 23:00,-3.89,-17.70,5.29,-11.68,9.49,-15.35,4.60,-16.78,2.92,-16.03,5.74,-14.99,6.90,-14.34,8.05,-13.27,7.70,-10.67,4.61,-8.65,-4.26,-6.45,-0.87,-8.80
2016-07-09 00:00,,,,,,,,,,,,,,,,,,,,,,,,
2016-07-09 02:00,-3.95,-7.51,0.07,-14.15,-3.15,-19.15,-6.31,-19.04,-6.71,-19.46,-5.05,-19.08,-3.37,-16.61,-0.43,-10.65,-1.51,-8.36,-3.00,-6.50,-3.45,-3.51,-1.82,-3.03
2016-07-09 03:00,2.14,-0.21,3.70,-9.44,-2.30,-11.72,-4.98,-10.42,-3.96,-10.33,-3.33,-10.35,0.56,-8.69,0.38,-4.16,-3.33,-1.81,-4.85,-1.94,-5.58,-0.17,-2.70,3.17
2016-07-09 04:00,,,,,,,,,,,,,,,,,,,,,,,,
2016-07-09 05:00,8.75,-9.63,2.43,-17.94,-1.28,-14.86,0.10,-14.24,2.38,-12.43,1.01,-10.23,-3.09,-9.03,-3.95,-5.74,-3.25,-3.87,-2.74,-3.09,-1.01,-3.32,-0.58,-1.21
2016-07-09 06:00,5.26,-15.13,-4.40,-17.75,-6.46,-14.60,-2.81,-12.49,-3.05,-11.31,-6.87,-9.30,-6.34,-3.62,-5.52,-2.86,-4.66,-1.88,-3.78,-1.31,-5.11,-2.12,-5.29,-2.59
2016-07-09 07:00,0.49,-14.13,-0.46,-21.60,-9.56,-18.63,-5.62,-18.21,-2.61,-18.16,-2.69,-16.10,-2.07,-13.21,-0.51,-9.32,1.63,-8.79,-1.02,-7.90,-3.86,-6.75,-0.36,-6.25
2016-07-09 09:00,,,,,,,,,,,,,,,,,,,,,,,,
2016-07-09 12:00,-10.61,-12.90,-9.84,-10.90,-4.31,-13.03,1.79,-14.69,3.21,-19.90,1.35,-20.65,-1.24,-16.41,-0.33,-13.85,2.67,-9.85,4.53,-7.64,3.83,-8.47,8.40,-8.07
2016-07-09 13:00,-7.07,-7.90,-5.95,-14.56,-2.97,-16.91,1.53,-25.18,3.27,-26.86,2.70,-23.49,1.04,-19.60,0.62,-16.38,1.84,-13.42,3.83,-10.97,3.63,-9.57,8.57,-8.64
2016-07-09 14:00,-7.07,-5.40,-8.97,-4.60,-5.93,-9.65,-1.90,-17.02,-1.50,-17.32,-2.51,-15.63,-1.26,-14.22,-2.79,-10.40,-4.59,-6.76,-2.70,-5.37,-2.83,-4.58,0.24,-1.18
2016-07-09 15:00,1.86,-7.79,0.14,-7.25,-1.12,-11.48,-3.46,-16.33,0.95,-16.08,2.90,-15.61,4.47,-14.94,3.76,-12.13,1.29,-8.69,0.44,-6.12,-0.15,-6.61,4.02,-4.14
2016-07-09 16:00,1.82,-5.51,-0.11,-9.62,-3.14,-11.34,-8.24,-12.10,-5.04,-13.04,-4.61,-11.66,-2.26,-11.50,0.16,-10.16,-0.99,-8.00,-1.71,-5.19,-5.45,-5.24,0.45,-2.26
2016-07-09 17:00,2.87,-9.47,-1.70,-15.92,2.59,-19.56,-2.75,-18.73,-1.58,-17.76,0.52,-18.18,2.01,-16.50,-0.29,-14.67,-0.08,-12.21,-0.73,-10.32,-3.38,-10.16,0.15,-9.44
2016-07-09 18:00,-6.20,-14.42,-2.53,-17.72,-4.46,-16.83,-5.66,-13.43,-3.20,-11.87,-1.26,-11.00,-1.08,-9.48,-3.21,-7.19,-3.61,-5.12,-5.28,-4.04,-7.33,-3.81,-6.07,-4.90
2016-07-09 19:00,,,,,,,,,,,,,,,,,,,,,,,,
2016-07-09 21:00,-2.91,-29.61,-7.18,-25.33,-8.48,-26.23,-4.72,-23.78,-2.35,-21.53,-1.61,-20.16,-3.67,-21.29,-6.52,-22.22,-6.54,-20.04,-6.73,-14.05,-7.74,-11.64,-7.09,-12.80
2016-07-09 22:00,,,,,,,,,,,,,,,,,,,,,,,,
2016-07-09 23:00,-9.81,-30.58,-7.07,-23.22,-8.81,-15.49,-4.44,-22.24,-5.34,-20.94,-1.61,-17.66,1.70,-16.49,1.63,-15.57,-0.24,-15.91,-2.55,-13.35,-4.68,-11.79,-3.67,-13.47
2016-07-10 01:00,-8.73,-13.60,-7.93,-10.65,-1.65,-18.93,2.62,-23.93,-4.70,-18.15,-1.10,-15.12,4.61,-14.70,5.77,-10.82,5.55,-9.73,2.40,-8.57,-1.57,-5.67,0.04,-4.78
2016-07-10 02:00,-12.31,-11.00,-9.02,-9.41,-0.67,-19.78,-0.76,-26.27,1.55,-28.82,-0.80,-25.76,0.06,-24.78,4.72,-16.12,4.95,-12.30,0.58,-11.60,-0.32,-10.30,1.66,-10.66
2016-07-10 03:00,-6.00,-4.78,-0.73,-7.82,0.38,-18.75,-0.35,-23.02,0.06,-22.28,-0.48,-18.68,-0.93,-16.42,2.86,-9.06,5.27,-6.27,2.64,-5.48,1.42,-4.48,2.17,-4.57
2016-07-10 04:00,,,,,,,,,,,,,,,,,,,,,,,,
2016-07-10 06:00,4.22,-6.58,0.07,-20.92,-1.91,-18.06,-3.87,-18.84,-4.13,-20.07,-5.43,-14.92,-6.34,-7.90,-7.99,-3.69,-7.93,-5.65,-6.89,-5.66,-5.00,-4.28,-4.14,-6.52
2016-07-10 07:00,3.71,-10.90,-2.05,-21.13,-9.05,-22.13,-3.59,-19.07,-4.98,-18.96,-5.39,-15.43,-7.07,-7.90,-6.90,-5.98,-6.76,-6.46,-4.54,-7.27,-6.48,-4.92,-5.34,-7.40
2016-07-10 08:00,3.69,-10.49,-2.17,-19.29,-10.75,-16.69,-6.55,-16.08,-2.34,-15.17,-2.56,-10.85,-7.57,-9.40,-7.31,-8.49,-3.36,-7.03,-2.17,-6.47,-4.36,-7.53,-5.07,-9.40
2016-07-10 09:00,9.09,-28.60,0.58,-31.19,-4.72,-23.78,-1.64,-25.38,4.08,-24.65,0.81,-24.87,-1.28,-22.36,1.25,-19.22,3.02,-18.18,1.40,-15.12,-1.17,-13.47,-0.62,-14.98
2016-07-10 10:00,2.35,-30.47,-6.67,-23.52,-10.12,-9.21,-12.13,-10.53,-9.90,-16.75,-2.47,-18.64,1.50,-18.31,-0.44,-18.46,0.77,-15.82,3.19,-13.76,2.46,-11.26,4.75,-10.90
2016-07-10 11:00,-5.25,-23.73,-12.61,-20.67,-13.57,-6.68,-13.06,-3.09,-9.10,-10.58,-3.00,-12.55,-2.03,-13.72,-4.71,-13.46,-5.50,-10.78,-2.40,-9.25,-1.20,-8.37,-0.61,-5.39
2016-07-10 12:00,,,,,,,,,,,,,,,,,,,,,,,,
2016-07-10 13:00,2.92,-23.53,3.21,-17.40,10.62,-10.65,7.31,-10.05,7.63,-15.06,7.61,-18.19,6.64,-17.02,5.87,-15.79,5.14,-12.25,4.66,-9.89,3.53,-8.87,7.15,-7.70
2016-07-10 14:00,,,,,,,,,,,,,,,,,,,,,,,,
2016-07-10 17:00,-1.95,-9.01,4.52,-10.45,7.80,-19.91,0.86,-21.84,-6.65,-20.38,-9.37,-17.85,-7.33,-12.35,-5.66,-10.20,-4.80,-9.95,-5.34,-7.40,-6.58,-6.72,-3.13,-3.21
2016-07-10 18:00,-1.02,-10.40,1.11,-15.20,0.47,-20.49,-5.30,-17.49,-9.25,-15.41,-10.08,-10.76,-8.65,-4.61,-8.41,-3.29,-8.16,-1.66,-7.03,-0.91,-9.61,-2.39,-10.90,0.56
2016-07-10 19:00,-2.78,-14.36,-7.81,-21.04,-5.93,-22.47,-3.39,-21.20,-8.66,-17.43,-13.45,-15.29,-11.04,-11.04,-8.21,-8.97,-7.45,-8.74,-6.24,-7.87,-8.20,-9.38,-9.01,-8.37
2016-07-10 20:00,7.51,-21.04,2.95,-26.12,0.93,-27.76,2.67,-29.43,0.63,-26.38,-1.75,-21.45,-2.38,-17.89,0.54,-16.10,2.75,-15.45,1.60,-14.01,0.12,-12.88,-0.71,-13.96
2016-07-10 21:00,-2.57,-23.99,-8.37,-26.62,-7.62,-23.48,-8.19,-21.88,-6.28,-17.36,-7.58,-13.99,-6.57,-13.17,-2.99,-14.73,-2.83,-13.85,-4.50,-11.32,-8.02,-8.91,-7.11,-9.89
2016-07-10 22:00,1.15,-26.02,-7.56,-25.45,-6.96,-22.87,-8.58,-21.26,-6.21,-17.96,-0.35,-16.98,3.88,-17.20,7.10,-17.51,8.09,-15.55,5.84,-13.19,2.36,-12.33,4.23,-13.04
2016-07-10 23:00,,,,,,,,,,,,,,,,,,,,,,,,
2016-07-11 01:00,-0.32,-16.35,-3.86,-16.03,-7.66,-16.93,-4.75,-19.73,-5.43,-14.92,-9.23,-11.55,-16.44,-7.20,-16.17,-6.71,-10.44,-10.24,-0.01,-11.36,0.19,-9.22,2.75,-7.63
2016-07-11 02:00,-1.69,-14.87,-3.76,-14.23,-7.64,-3.80,-5.17,-6.20,-3.90,-11.97,-3.33,-12.85,-2.88,-13.66,-3.60,-10.12,-4.60,-12.08,-0.28,-10.08,1.47,-8.95,1.35,-9.61
2016-07-11 03:00,0.49,-12.36,-0.28,-12.58,1.78,-8.23,-5.19,-6.83,-5.36,-8.03,-2.27,-6.50,-3.62,-5.43,-5.96,-6.33,-6.09,-7.30,-2.08,-7.49,0.75,-5.41,1.05,-3.96
2016-07-11 04:00,,,,,,,,,,,,,,,,,,,,,,,,
2016-07-11 05:00,0.57,-12.65,-4.05,-11.81,0.60,-10.97,-0.74,-11.36,-1.69,-10.60,-3.36,-7.03,-6.66,-2.16,-9.47,-2.87,-8.52,-1.87,-8.76,-2.46,-9.38,-2.12,-8.27,-2.00
2016-07-11 06:00,-7.04,-14.77,-10.96,-13.83,-6.27,-12.77,-7.85,-9.49,-8.67,-7.75,-11.81,-5.22,-13.30,-0.14,-14.98,3.85,-15.03,5.09,-15.03,2.59,-14.35,1.33,-15.34,0.10
2016-07-11 07:00,-4.02,-18.68,-6.78,-18.13,-6.09,-14.08,-7.67,-5.47,-5.02,0.41,-8.41,-2.25,-11.22,-2.97,-7.38,1.38,-6.36,6.79,-11.56,3.91,-11.34,1.37,-8.50,-1.23
2016-07-11 08:00,,,,,,,,,,,,,,,,,,,,,,,,
2016-07-11 10:00,-14.27,-22.09,-10.51,-17.87,-7.69,-15.38,-3.31,-15.76,2.44,-14.39,-0.33,-13.85,0.62,-10.66,2.34,-6.92,0.82,-5.28,-1.26,-3.18,-2.47,-2.60,-1.76,-3.95
2016-07-11 11:00,-16.92,-18.39,-11.75,-13.96,0.47,-11.95,-1.53,-14.72,-0.77,-15.54,-3.72,-17.55,-3.55,-15.31,1.02,-9.91,0.74,-7.18,0.92,-4.94,1.56,-3.92,0.82,-3.51
2016-07-11 12:00,-13.27,-18.05,-6.10,-17.62,5.19,-19.53,2.98,-16.95,1.56,-14.23,-0.09,-14.30,-0.04,-13.76,4.49,-11.08,5.22,-8.58,4.44,-7.35,5.79,-5.18,6.37,-3.97
2016-07-11 13:00,-9.26,-12.50,-2.77,-13.31,4.65,-16.98,-0.69,-12.60,-0.56,-9.85,0.92,-9.21,0.76,-9.36,4.81,-8.60,4.25,-5.63,4.27,-3.55,5.94,-2.85,6.59,-2.24
2016-07-11 14:00,-17.05,-4.05,-11.93,-5.88,-0.39,-13.97,2.89,-14.16,-1.39,-9.16,-1.51,-6.59,1.11,-5.93,1.14,-6.75,5.33,-8.24,5.68,-4.80,5.29,-2.41,6.44,-1.35
2016-07-11 15:00,-7.63,-5.98,-2.61,-10.66,0.84,-18.20,1.30,-14.42,-1.19,-9.83,0.67,-9.08,2.94,-8.62,2.08,-7.83,2.69,-9.21,3.65,-7.48,3.59,-3.01,3.68,-1.53
2016-07-11 16:00,-5.50,-3.28,-4.53,-13.72,-7.79,-13.63,-6.62,-11.21,-6.64,-5.80,-6.06,-8.13,-6.40,-8.75,-6.52,-6.91,-6.55,-7.54,-4.99,-7.50,-3.53,-2.18,-2.78,-0.81
2016-07-11 17:00,-1.68,-7.79,-6.27,-18.82,-8.92,-15.11,-6.85,-7.21,-6.20,-5.88,-7.98,-9.42,-7.67,-10.47,-7.53,-6.68,-8.32,-5.77,-7.44,-5.20,-5.70,-2.60,-4.54,-0.50
2016-07-11 18:00,,,,,,,,,,,,,,,,,,,,,,,,
2016-07-11 20:00,,,,,,,,,,,,,,,,,,,,,,,,
2016-07-11 21:00,-0.27,-25.81,-15.37,-10.85,-14.91,-1.03,-10.62,-4.67,-3.86,-4.98,-4.07,-3.17,-4.20,-0.60,-4.90,0.02,-5.57,0.87,-3.94,2.08,-2.43,1.89,-2.50,-0.00
2016-07-11 22:00,-4.40,-28.79,-15.28,-18.64,-16.72,-3.74,-12.44,-3.43,-7.60,-7.85,-0.66,-10.92,-0.07,-6.90,-1.34,-4.66,-3.24,-4.59,-0.34,-2.39,1.17,-0.08,0.20,-4.94
2016-07-11 23:00,-2.91,-29.61,-8.70,-18.69,-6.79,-3.13,-6.19,-4.83,-4.39,-12.43,-2.65,-13.38,-1.61,-10.16,-1.73,-6.55,-1.46,-6.05,0.94,-4.62,2.07,-3.15,2.28,-4.96
2016-07-12 01:00,-10.53,-23.50,-5.21,-10.69,1.72,-4.81,-4.04,-8.27,-6.03,-11.45,-5.93,-11.42,-7.16,-11.16,-2.83,-9.58,-0.32,-6.76,0.12,-3.61,1.23,-1.00,3.27,-7.27
2016-07-12 02:00,-13.40,-10.48,-7.30,-8.18,-7.92,-4.61,-10.92,-6.11,-6.07,-6.67,-3.75,-8.91,-4.23,-7.28,-0.76,-3.45,2.76,0.18,2.20,-1.13,4.00,-0.50,5.94,-2.85
2016-07-12 03:00,,,,,,,,,,,,,,,,,,,,,,,,
2016-07-12 05:00,-6.34,8.15,-1.61,-2.35,0.50,-12.77,-2.71,-7.46,-4.17,-4.97,-5.32,-5.31,-6.65,0.66,-6.64,3.48,-5.43,4.66,-3.48,5.13,-0.72,7.08,-1.85,8.11
2016-07-12 06:00,-1.37,8.25,-2.34,-5.17,-5.90,-14.02,-8.15,-5.61,-7.10,-4.58,-6.00,0.22,-6.99,6.08,-4.97,10.94,-5.93,13.16,-4.46,10.26,-0.19,8.49,1.41,9.79
2016-07-12 07:00,-0.56,6.19,-3.14,-2.79,-7.68,-9.02,-2.82,-6.03,0.78,-1.23,1.75,3.64,1.95,6.51,-2.68,4.53,2.71,6.42,2.37,7.57,-0.72,2.81,1.45,3.97
2016-07-12 08:00,4.04,-4.55,-3.02,-5.36,-9.23,-4.05,-5.94,2.85,-4.17,8.57,-5.87,9.74,-2.84,11.15,-0.76,13.64,-1.75,11.68,-0.42,10.71,-1.44,4.58,0.52,2.86
2016-07-12 09:00,3.73,-5.99,-5.24,-9.87,-20.32,-10.32,-18.81,-8.00,-14.55,-2.27,-12.92,-1.07,-9.48,1.08,-7.42,2.93,-5.39,3.84,-4.00,5.50,-2.52,4.68,-0.31,4.28
2016-07-12 10:00,9.12,-16.92,-4.73,-16.60,-19.07,-12.45,-17.02,-12.69,-10.82,-5.04,-8.61,-3.35,-6.15,-2.11,-2.71,-1.42,-0.48,-0.14,-1.21,-1.92,-0.87,-2.02,2.57,-1.65
2016-07-12 11:00,5.57,-22.96,3.26,-25.41,-9.68,-16.06,-11.94,-14.74,-7.02,-11.64,-5.74,-10.64,-4.52,-10.91,-2.06,-9.35,1.55,-7.78,3.24,-5.72,1.56,-5.69,1.94,-6.62
2016-07-12 12:00,,,,,,,,,,,,,,,,,,,,,,,,
2016-07-12 13:00,,,,,,,,,,,,,,,,,,,,,,,,
2016-07-12 15:00,-4.67,-11.47,-4.40,-8.48,0.29,-1.69,0.46,-2.99,1.35,-3.56,2.56,-4.46,1.86,-3.52,3.26,-3.32,2.89,-3.84,5.63,-3.56,7.24,-1.95,8.02,-2.13
2016-07-12 17:00,-10.11,-7.12,-9.34,-6.17,-2.79,-6.13,-3.76,-4.95,-3.02,-7.13,0.17,-9.12,1.51,-3.73,1.41,-1.26,1.29,-2.64,0.18,-2.76,-0.29,-1.86,-1.16,0.39
2016-07-12 18:00,-11.93,-3.38,-9.79,-3.59,-4.34,-2.62,-4.28,-0.31,-5.24,-0.60,-3.88,-4.89,-0.62,-3.93,0.66,-0.85,-0.84,-1.39,-1.11,-0.84,0.09,0.76,-2.03,5.87
2016-07-12 19:00,-17.43,0.11,-16.09,0.50,-5.89,-5.16,-5.20,-2.88,-5.29,-2.59,-5.89,-6.93,-4.65,-5.84,-2.29,-3.59,-4.27,-2.50,-3.60,-1.57,-3.09,0.24,-3.25,1.86
2016-07-12 20:00,-14.10,0.46,-11.63,-3.71,-5.42,-7.84,-4.55,-5.81,-6.29,-4.13,-8.07,-5.90,-5.87,-3.80,-5.09,-3.26,-5.60,-2.58,-5.12,-2.44,-4.15,-1.84,-4.81,0.05
2016-07-12 21:00,-5.61,-1.85,-4.17,-4.97,-1.32,-5.80,-0.13,-4.20,-2.82,-4.26,-3.04,-3.49,-0.39,-1.16,1.15,0.34,0.95,-0.04,1.81,0.22,1.26,2.45,0.48,-1.63
2016-07-12 22:00,,,,,,,,,,,,,,,,,,,,,,,,
2016-07-13 00:00,-3.32,-16.08,1.62,-13.38,-2.66,-11.93,0.56,-12.24,1.99,-7.86,-0.51,-6.82,0.93,-6.40,0.09,-6.02,1.69,-6.49,2.59,-3.51,2.17,-2.07,1.66,-6.39
2016-07-13 01:00,-7.94,-10.24,0.71,-13.13,1.48,-8.63,1.06,-12.19,5.66,-9.39,7.36,-4.51,7.23,-2.99,6.86,-1.02,5.19,1.83,3.99,3.46,-0.95,4.31,1.23,-2.77
2016-07-13 02:00,-15.58,-14.77,-10.60,-17.90,-8.47,-11.65,-6.28,-14.86,-4.70,-15.65,4.31,-16.87,5.91,-15.57,7.06,-10.96,8.18,-10.53,6.50,-10.81,4.23,-10.54,3.39,-14.43
2016-07-13 03:00,-15.60,4.19,-12.73,-3.51,-4.36,-5.76,-4.32,-6.26,-2.88,-5.84,4.20,-6.17,6.51,-3.72,7.38,-0.65,8.05,-1.50,5.67,-1.57,3.76,-0.05,2.27,-0.27
2016-07-13 04:00,,,,,,,,,,,,,,,,,,,,,,,,
2016-07-13 05:00,-5.58,6.60,-12.55,-1.27,-3.34,-5.67,-1.13,-1.48,-2.02,-5.91,1.63,-9.84,3.31,-7.05,2.00,-3.27,2.54,-2.28,2.71,-1.08,2.86,-2.29,2.95,-1.53
2016-07-13 06:00,-2.63,3.29,-13.67,-3.48,-6.75,-3.64,-5.08,-2.94,-5.36,-5.53,-3.16,-9.15,-1.46,-6.78,-0.67,-5.20,0.04,-1.55,-0.66,-0.61,-0.26,-1.95,-1.55,-0.77
2016-07-13 07:00,-2.46,-4.05,-11.42,-5.11,-3.05,-0.27,1.82,0.53,-2.86,-1.98,-5.34,-9.17,-5.33,-9.58,-3.21,-7.92,-1.47,-6.37,-1.89,-4.93,-3.46,-4.55,-5.35,-3.44
2016-07-13 08:00,,,,,,,,,,,,,,,,,,,,,,,,
2016-07-13 10:00,-3.77,-12.04,-12.93,-5.66,-2.83,-4.58,0.32,-0.01,-5.29,0.64,-9.00,-2.01,-10.20,-6.11,-6.01,-5.09,-3.00,-3.27,-1.55,-1.81,-0.58,-0.17,1.28,-2.23
2016-07-13 11:00,-5.92,-24.65,-9.92,-13.11,-7.52,-14.91,0.63,-11.07,-1.19,-8.06,-6.13,-8.25,-9.50,-10.28,-6.82,-9.81,-5.07,-8.67,-3.61,-7.62,-2.63,-5.25,-2.54,-8.77
2016-07-13 12:00,-7.49,-17.51,-7.27,-5.77,-6.23,-5.78,2.42,-6.48,1.54,-2.78,-3.60,-2.30,-5.50,-3.28,-4.46,-4.33,-3.73,-4.01,-2.09,-2.49,-0.80,-0.13,-0.78,-1.27
2016-07-13 13:00,-9.49,-18.51,-6.61,-6.62,-6.72,-5.51,2.02,-6.91,5.85,-4.33,1.84,-5.92,0.67,-6.58,1.13,-5.30,0.61,-4.93,1.17,-2.58,0.62,-1.07,1.81,-3.33
2016-07-13 14:00,-4.22,-16.55,1.13,-9.57,1.05,-1.46,4.08,-5.06,5.53,-7.86,2.44,-8.35,1.53,-7.37,1.30,-7.64,-0.78,-7.31,-1.12,-7.20,-0.95,-6.01,0.41,-9.26
2016-07-13 15:00,-17.71,-12.47,-7.15,-5.11,-1.76,-3.95,1.97,-1.40,9.05,-7.77,9.22,-5.53,4.52,-5.14,3.58,-5.10,1.92,-4.44,0.12,-3.61,2.09,-2.51,2.63,-4.02
2016-07-13 16:00,-20.49,-9.74,-8.02,-8.91,-2.81,-7.49,2.43,-6.17,4.87,-14.52,8.78,-14.00,7.17,-8.84,3.25,-8.63,1.26,-8.59,-0.11,-6.39,0.14,-6.52,1.44,-6.35
2016-07-13 17:00,,,,,,,,,,,,,,,,,,,,,,,,
2016-07-13 19:00,-11.05,9.27,-5.07,0.60,-3.53,-0.41,-6.10,-4.80,-10.48,-9.42,-5.88,-10.16,-2.35,-8.71,-2.22,-5.96,-3.98,-2.41,-4.63,0.52,-4.37,3.20,-5.12,1.11
2016-07-13 20:00,,,,,,,,,,,,,,,,,,,,,,,,
2016-07-13 21:00,2.78,-4.50,1.85,-12.38,-2.31,-10.99,-9.83,-5.58,-9.42,-7.34,-8.88,-8.12,-7.59,-10.03,-5.95,-8.51,-4.78,-6.09,-4.73,-3.05,-5.95,0.76,-5.92,-1.84
2016-07-13 22:00,0.96,-6.49,-7.99,-11.51,-8.85,-8.21,-12.53,-3.46,-12.45,-3.02,-12.08,-3.95,-13.18,-6.25,-12.27,-5.78,-9.71,-4.19,-9.41,0.48,-10.56,6.18,-11.82,0.50
2016-07-13 23:00,,,,,,,,,,,,,,,,,,,,,,,,
2016-07-14 01:00,-0.66,-17.70,-10.22,-18.51,-7.37,-9.35,-4.27,-5.00,-3.39,-1.93,-1.76,-0.41,-2.28,-0.04,-4.06,3.19,-8.18,9.80,-12.41,14.29,-10.63,15.33,-7.34,11.19
2016-07-14 02:00,,,,,,,,,,,,,,,,,,,,,,,,
2016-07-14 04:00,-5.25,-21.23,-15.93,-14.66,-10.21,-8.20,-4.33,-9.08,-1.21,-7.96,-0.73,-10.32,-1.12,-9.70,0.56,-8.69,0.39,-8.12,-0.34,-6.66,-2.20,-2.10,0.23,-9.00
2016-07-14 05:00,-1.00,-15.82,-2.93,-5.65,-0.97,-3.10,0.33,-7.20,3.90,-5.84,4.26,-9.59,5.44,-6.85,3.15,-3.66,3.12,-4.61,0.64,-3.25,-3.21,-0.42,0.57,-4.10
2016-07-14 06:00,-8.55,-5.31,-7.03,2.32,-1.12,4.88,-3.78,2.96,-1.76,-0.41,-1.46,-3.55,-1.52,-3.36,1.66,-0.35,0.96,-0.45,-0.76,-0.95,-1.69,0.44,-0.60,-0.07
2016-07-14 07:00,-10.52,-0.37,-9.36,7.06,-1.61,7.65,-2.87,6.97,-4.33,5.19,-4.50,3.27,-3.81,1.28,-1.87,1.75,-1.23,2.77,-3.23,3.22,-4.58,5.33,-3.70,7.67
2016-07-14 08:00,-8.82,-8.31,-9.13,-1.21,1.42,-4.48,1.81,-4.05,3.45,-7.53,-0.10,-8.57,-3.61,-11.89,-2.36,-12.25,-0.86,-12.75,-2.88,-11.16,-5.80,-7.95,-4.89,-9.66
2016-07-14 09:00,-4.00,-3.77,-4.57,2.10,-0.60,1.70,-2.07,2.10,-2.60,-1.07,-4.95,-3.01,-6.14,-4.30,-5.96,-5.28,-6.58,-4.94,-6.52,-3.36,-5.83,-1.81,-5.29,-6.13
2016-07-14 10:00,-2.36,0.25,-2.94,1.85,-1.46,3.22,-4.24,4.18,-6.43,1.66,-10.12,0.06,-13.00,-1.51,-10.54,-1.00,-11.01,-0.82,-11.17,0.80,-8.72,2.03,-8.50,-3.01
2016-07-14 11:00,-1.22,-9.00,-3.34,-6.39,-0.31,-3.22,-2.77,-3.00,-5.66,-4.16,-10.52,-4.64,-13.34,-5.67,-13.30,-6.91,-11.95,-6.52,-14.10,-3.08,-14.00,1.22,-12.71,-6.42
2016-07-14 12:00,,,,,,,,,,,,,,,,,,,,,,,,
2016-07-14 14:00,-4.70,-14.92,-0.71,-9.69,-0.37,-6.57,0.91,-4.53,-1.76,-2.18,-3.83,-0.08,-5.34,0.10,-3.13,-0.71,-2.12,0.84,-3.52,3.14,-4.62,5.11,-2.73,3.99
2016-07-14 15:00,-3.11,-17.16,1.40,-10.84,-0.24,-7.36,1.43,-7.40,2.67,-5.57,1.14,-2.48,-0.72,-1.46,1.01,-2.73,1.76,-0.32,0.74,2.82,0.59,7.26,2.29,3.59
2016-07-14 17:00,-18.18,-4.80,-10.87,-8.08,-5.32,-6.04,-4.80,-7.45,-2.12,-5.93,0.97,-3.68,0.23,-2.22,-0.14,-2.02,1.36,-0.75,1.94,1.92,1.41,5.52,2.03,2.68
2016-07-14 18:00,,,,,,,,,,,,,,,,,,,,,,,,
2016-07-14 19:00,-11.45,12.07,-10.61,5.65,-6.06,1.14,-8.89,0.84,-8.44,0.35,-3.73,-0.78,-0.55,0.46,-0.23,2.22,-0.66,1.89,0.20,1.10,0.51,3.59,1.01,5.82
2016-07-14 20:00,-4.48,13.17,-9.11,5.15,-5.84,-0.35,-8.12,1.06,-8.20,2.39,-6.72,-1.24,-1.69,-2.79,0.32,-2.51,-0.85,-1.71,-1.45,-0.74,0.91,2.24,2.82,1.03
2016-07-14 21:00,,,,,,,,,,,,,,,,,,,,,,,,
2016-07-14 23:00,6.59,-8.28,-7.42,-10.61,-4.54,-4.77,-4.24,-3.32,-6.57,-6.40,-7.17,-8.97,-5.81,-9.72,-5.86,-10.26,-6.87,-11.07,-6.77,-9.27,-7.43,-4.15,-5.26,-8.73
2016-07-15 00:00,,,,,,,,,,,,,,,,,,,,,,,,
2016-07-15 01:00,2.57,-21.96,-3.17,-13.01,-2.17,-9.70,-1.18,-7.01,-5.75,-8.14,-9.12,-6.94,-18.47,-2.38,-24.10,-3.82,-13.48,-5.19,-12.94,-4.20,-13.94,-0.43,-8.66,-8.16
2016-07-15 02:00,2.76,-18.36,-1.90,-3.47,1.43,0.10,1.37,-3.25,-0.87,0.48,-3.67,2.57,-6.59,3.28,-4.63,2.29,-1.24,3.18,-5.25,5.13,-7.93,7.89,-3.26,0.82
2016-07-15 03:00,-0.34,-16.66,-4.91,-6.02,1.04,-4.28,0.82,-6.74,-0.60,-2.57,-1.78,1.46,-2.42,0.44,-0.10,1.43,-0.26,4.09,0.39,6.16,-2.72,8.58,-3.07,2.65
2016-07-15 04:00,,,,,,,,,,,,,,,,,,,,,,,,
2016-07-15 05:00,-4.67,-10.74,-2.51,-1.05,1.75,-4.91,0.92,-4.21,0.27,-2.00,0.32,1.76,0.09,1.48,2.12,0.93,2.30,3.90,0.52,7.13,-2.14,10.52,1.31,2.99
2016-07-15 06:00,-15.09,-5.77,-10.58,-5.49,-7.38,-10.39,-6.29,-8.40,-3.66,-5.65,-3.16,-4.15,-2.47,-2.60,-0.50,-1.50,0.67,0.20,-0.93,3.17,-1.30,4.10,-1.02,-0.09
2016-07-15 09:00,-25.89,9.10,-15.83,14.96,-9.60,8.97,-11.92,4.43,-11.11,2.38,-7.01,1.18,-6.02,-0.09,-3.87,-0.30,0.48,-1.63,2.72,1.73,0.55,3.81,0.71,2.92
2016-07-15 10:00,-23.76,16.39,-8.99,16.85,-1.39,6.89,-7.77,3.77,-7.81,1.05,-6.16,1.12,-3.70,-1.60,-2.87,-4.07,-3.10,-5.80,-0.20,-4.64,1.62,-1.61,3.50,-2.00
2016-07-15 11:00,-9.81,10.05,1.98,1.41,-6.44,-0.42,-11.88,-1.08,-11.66,-2.16,-8.60,-4.81,-7.96,-8.06,-7.81,-8.22,-6.61,-9.12,-5.69,-7.60,-4.88,-6.84,-3.97,-7.10
2016-07-15 12:00,1.86,1.48,4.70,-7.17,-2.47,-1.87,-5.46,-0.56,-5.57,-3.40,-6.98,-6.42,-5.92,-9.34,-6.61,-10.89,-4.94,-11.97,-3.53,-10.72,-3.63,-8.98,-1.33,-11.12
2016-07-15 13:00,8.19,-0.94,7.43,-6.16,3.23,0.01,0.17,2.97,-0.45,-0.24,-2.50,-4.27,-2.68,-5.79,-2.78,-5.09,-1.54,-6.49,-1.38,-8.11,-0.73,-6.05,2.45,-7.31
2016-07-15 14:00,6.02,-7.41,1.38,-10.43,-1.31,-1.94,-2.10,0.43,-4.83,-2.35,-7.28,-2.55,-7.70,-3.61,-7.62,-4.94,-6.98,-5.69,-8.60,-4.08,-9.43,-2.65,-6.90,-6.70
2016-07-15 15:00,11.29,-8.68,1.44,-16.67,2.58,-7.06,3.56,-4.69,-0.22,-4.96,-5.11,-6.39,-5.58,-8.72,-6.05,-9.58,-5.25,-9.14,-7.29,-7.86,-8.96,-5.33,-6.49,-9.50
2016-07-15 16:00,,,,,,,,,,,,,,,,,,,,,,,,
2016-07-15 18:00,2.86,-7.29,-8.86,-10.30,-7.70,-3.61,-1.05,-5.31,1.46,-4.99,-2.21,-0.65,-3.33,0.69,-3.41,2.75,-2.37,3.47,-2.37,3.47,-2.77,5.55,-1.07,4.38
2016-07-15 19:00,-0.63,-3.20,-11.18,-5.25,-7.65,-0.57,-1.86,-3.25,-2.41,0.75,-5.52,3.91,-5.76,4.36,-3.33,4.97,-3.25,6.13,-3.31,6.33,-3.11,8.15,-2.21,6.85
2016-07-15 20:00,,,,,,,,,,,,,,,,,,,,,,,,
2016-07-15 21:00,-9.19,2.21,-16.57,2.86,-15.80,-0.14,-11.42,-5.84,-9.07,-9.95,-5.51,-9.32,-2.16,-6.15,-0.94,-4.96,-1.13,-3.25,-0.75,-2.41,-1.49,-1.69,0.33,-0.42
2016-07-15 22:00,-6.85,3.10,-16.58,9.32,-14.79,13.18,-13.60,4.46,-13.02,-1.10,-9.32,-3.04,-5.18,-1.52,-4.12,-0.89,-3.48,-1.64,-2.13,-0.21,-1.83,0.92,-0.47,0.90
2016-07-15 23:00,-6.53,-6.18,-13.43,2.11,-11.49,5.08,-14.88,-1.85,-15.07,-6.91,-11.57,-8.18,-8.31,-7.22,-7.00,-5.28,-6.37,-4.57,-5.37,-4.07,-6.39,-2.39,-3.86,-4.25
2016-07-16 00:00,-9.12,-10.48,-2.84,3.65,0.57,5.17,-4.84,0.15,-11.62,-5.17,-13.29,-10.14,-11.94,-10.47,-8.61,-11.17,-3.76,-11.00,-2.94,-9.19,-3.40,-5.47,-0.82,-10.03
2016-07-16 01:00,-5.76,0.09,6.38,7.39,7.39,6.43,-2.76,4.09,-9.29,1.14,-7.63,3.29,-7.18,3.53,-6.16,1.12,-2.31,0.05,-0.90,1.30,-1.35,0.34,-0.10,0.70
2016-07-16 03:00,-12.49,-6.46,3.89,-1.89,2.91,2.52,-0.96,6.49,-5.85,2.56,-4.34,1.65,-3.50,2.00,-2.17,-1.47,0.72,-4.58,1.99,-4.31,-0.96,-4.55,-1.55,-6.81
2016-07-16 04:00,-1.69,-8.83,11.50,-12.26,7.21,-6.85,3.39,-3.39,0.94,-5.35,2.09,-3.24,0.35,-5.84,2.64,-7.25,4.74,-9.45,3.19,-8.76,2.85,-8.33,4.11,-11.20
2016-07-16 05:00,-2.44,-3.42,9.43,-12.66,4.90,-7.84,1.89,-1.11,1.49,1.69,3.43,2.15,-1.56,0.69,0.11,-2.88,1.11,-4.16,2.12,-4.38,-0.98,-4.14,1.17,-4.35
2016-07-16 06:00,-14.41,6.52,-1.93,-1.61,0.95,-4.31,1.14,1.79,0.78,5.54,2.64,6.29,0.93,4.65,2.73,1.01,1.54,1.49,0.18,2.24,-0.39,3.12,-1.92,4.44
2016-07-16 07:00,-1.72,7.31,1.25,-9.64,3.09,-7.01,3.23,0.01,1.08,3.44,2.71,3.19,-0.40,1.03,0.29,1.86,0.40,1.47,-0.69,1.99,-1.79,3.64,-0.83,2.47
2016-07-16 08:00,-10.47,20.48,-5.52,7.14,-7.26,-7.23,-0.65,-5.61,2.70,-1.40,2.64,-0.48,4.81,-1.82,2.93,-0.39,0.75,-1.14,0.60,0.07,-0.49,1.32,-0.04,1.55
2016-07-16 09:00,-9.97,23.76,-10.42,9.98,-13.79,-2.37,-13.79,-6.64,-6.44,-2.92,-1.85,-1.17,-0.16,-0.88,0.19,0.06,-2.02,0.87,-2.38,1.39,-2.97,1.95,-2.13,3.02
2016-07-16 10:00,4.02,24.72,-4.40,7.57,-15.69,-1.57,-11.21,0.58,-2.27,0.27,-0.30,0.33,1.34,-0.65,0.17,1.92,-1.18,2.26,-0.99,4.09,-0.70,4.17,0.41,5.02
2016-07-16 12:00,,,,,,,,,,,,,,,,,,,,,,,,
2016-07-16 13:00,6.24,-10.99,-16.64,-0.80,-16.01,1.67,-11.87,-1.80,-9.45,-4.74,-7.70,-7.15,-7.75,-10.91,-4.30,-10.22,-3.97,-8.87,-3.71,-6.19,-5.29,-3.63,-2.98,-6.91
2016-07-16 14:00,5.23,-17.54,-6.03,-1.45,-6.02,1.36,-6.08,-0.22,-7.20,-3.88,-7.15,-5.11,-7.16,-7.93,-7.66,-9.43,-4.11,-7.66,-4.83,-4.85,-5.41,-4.29,-2.89,-7.93
2016-07-16 15:00,5.42,-18.52,-1.10,0.93,1.62,4.43,1.41,1.24,-1.48,-0.64,-3.79,-4.13,-5.85,-4.94,-4.73,-5.55,-1.07,-4.17,0.25,-2.64,0.78,-1.23,1.99,-2.54
2016-07-16 16:00,-0.12,-24.52,-1.56,-4.63,3.12,0.39,1.86,-2.79,-2.40,-4.97,-3.97,-6.37,-4.99,-6.46,-2.48,-7.19,0.15,-6.94,1.57,-4.65,0.69,-4.49,2.06,-5.96
2016-07-16 17:00,-1.50,-17.32,5.74,-2.18,8.30,-1.32,3.35,-3.61,-1.95,-4.01,-2.64,-4.52,-3.63,-3.98,-1.67,-3.93,1.99,-4.31,3.18,-3.03,3.05,-1.51,3.39,-3.39
2016-07-16 18:00,-1.88,-9.61,7.32,-2.23,10.88,-0.88,6.09,-0.51,1.77,-0.00,-0.18,0.99,0.51,0.04,2.94,-0.08,5.32,-0.01,6.70,-0.12,6.65,-0.66,7.44,-0.85
2016-07-16 19:00,-7.35,-6.94,3.64,-0.71,6.91,-0.48,3.53,0.41,0.65,3.11,-0.03,4.37,-0.87,3.70,0.35,3.44,3.79,3.09,3.51,3.32,2.27,3.27,3.62,4.71
2016-07-16 20:00,,,,,,,,,,,,,,,,,,,,,,,,
2016-07-16 22:00,-26.30,12.63,-21.52,18.71,-9.00,11.54,-2.06,-5.08,0.53,-7.87,2.04,-3.78,2.30,-1.10,1.27,-1.50,3.10,-0.97,3.51,-1.68,2.31,-1.83,2.73,-1.49
2016-07-16 23:00,-14.52,13.67,-10.10,17.78,-4.63,2.29,-3.85,-10.71,-2.06,-11.85,1.04,-7.82,3.30,-4.87,0.76,-5.09,-0.58,-5.48,-1.08,-4.48,0.93,-2.12,1.85,-3.11